N121GS -KDAB

Flight info

Callsign N121GS
Flight time N/A
Altitude VFR
Route
Aircraft DA42/L-DOV/C

Departure

Time N/A
Airport -

Arrival

Time 2026-04-28 22:00
Airport Daytona Beach International Airport (KDAB)
Time Latitude Longitude Altitude Speed Heading
2026-04-28 21:35 30.08794 -81.49013 3027 ft 160 kts 155°
2026-04-28 21:35 30.07764 -81.48520 3008 ft 159 kts 156°
2026-04-28 21:35 30.06744 -81.48025 3015 ft 160 kts 155°
2026-04-28 21:36 30.05710 -81.47533 3016 ft 160 kts 156°
2026-04-28 21:36 30.04687 -81.47041 3011 ft 158 kts 155°
2026-04-28 21:36 30.03682 -81.46560 3024 ft 159 kts 156°
2026-04-28 21:36 30.02655 -81.46065 3012 ft 159 kts 155°
2026-04-28 21:37 30.01637 -81.45577 3013 ft 157 kts 156°
2026-04-28 21:37 30.00622 -81.45090 3013 ft 157 kts 155°
2026-04-28 21:37 29.99602 -81.44602 3006 ft 159 kts 155°
2026-04-28 21:37 29.98575 -81.44109 3004 ft 160 kts 155°
2026-04-28 21:38 29.97557 -81.43618 3018 ft 162 kts 155°
2026-04-28 21:38 29.96511 -81.43118 3003 ft 161 kts 156°
2026-04-28 21:38 29.95491 -81.42632 3055 ft 156 kts 155°
2026-04-28 21:38 29.94488 -81.42149 3056 ft 159 kts 155°
2026-04-28 21:39 29.93451 -81.41654 3004 ft 161 kts 155°
2026-04-28 21:39 29.92439 -81.41165 3020 ft 162 kts 155°
2026-04-28 21:39 29.91391 -81.40666 3007 ft 164 kts 155°
2026-04-28 21:39 29.90360 -81.40130 3012 ft 163 kts 142°
2026-04-28 21:40 29.89542 -81.39213 3001 ft 164 kts 135°
2026-04-28 21:40 29.88713 -81.38330 3004 ft 159 kts 135°
2026-04-28 21:40 29.87904 -81.37473 3001 ft 159 kts 134°
2026-04-28 21:40 29.87088 -81.36636 3004 ft 157 kts 142°
2026-04-28 21:41 29.86075 -81.36168 3000 ft 157 kts 161°
2026-04-28 21:41 29.85026 -81.35797 3007 ft 159 kts 160°
2026-04-28 21:41 29.83966 -81.35444 3005 ft 158 kts 160°
2026-04-28 21:41 29.82924 -81.35090 3008 ft 158 kts 162°
2026-04-28 21:42 29.81864 -81.34719 3018 ft 160 kts 161°
2026-04-28 21:42 29.81147 -81.34469 3009 ft 165 kts 161°
2026-04-28 21:42 29.80049 -81.34085 2997 ft 163 kts 161°
2026-04-28 21:42 29.78619 -81.33592 3008 ft 163 kts 160°
2026-04-28 21:43 29.77537 -81.33217 3005 ft 161 kts 160°
2026-04-28 21:43 29.76829 -81.32973 3013 ft 160 kts 161°
2026-04-28 21:43 29.75762 -81.32602 3003 ft 159 kts 159°
2026-04-28 21:43 29.74697 -81.32236 3003 ft 160 kts 160°
2026-04-28 21:44 29.73624 -81.31862 3008 ft 161 kts 160°
2026-04-28 21:44 29.72547 -81.31494 3003 ft 163 kts 160°
2026-04-28 21:44 29.71460 -81.31108 3002 ft 163 kts 161°
2026-04-28 21:44 29.70379 -81.30740 3002 ft 160 kts 161°
2026-04-28 21:45 29.69319 -81.30374 3007 ft 158 kts 160°
2026-04-28 21:45 29.68255 -81.30007 3021 ft 161 kts 160°
2026-04-28 21:45 29.67192 -81.29638 3018 ft 164 kts 160°
2026-04-28 21:45 29.66081 -81.29259 3009 ft 165 kts 160°
2026-04-28 21:46 29.64986 -81.28875 3019 ft 164 kts 160°
2026-04-28 21:46 29.63900 -81.28504 3023 ft 164 kts 160°
2026-04-28 21:46 29.62805 -81.28120 3009 ft 164 kts 160°
2026-04-28 21:46 29.61714 -81.27745 3012 ft 163 kts 160°
2026-04-28 21:47 29.60632 -81.27374 3032 ft 162 kts 161°
2026-04-28 21:47 29.59543 -81.27001 3004 ft 164 kts 160°
2026-04-28 21:47 29.58467 -81.26625 3016 ft 160 kts 161°
2026-04-28 21:47 29.57401 -81.26258 3014 ft 159 kts 159°
2026-04-28 21:48 29.56337 -81.25897 3020 ft 160 kts 160°
2026-04-28 21:48 29.55272 -81.25524 3027 ft 162 kts 160°
2026-04-28 21:48 29.54175 -81.25147 3029 ft 166 kts 161°
2026-04-28 21:48 29.53075 -81.24770 3018 ft 165 kts 160°
2026-04-28 21:49 29.51971 -81.24389 3025 ft 165 kts 160°
2026-04-28 21:49 29.50867 -81.24008 3027 ft 166 kts 160°
2026-04-28 21:49 29.49755 -81.23624 3024 ft 168 kts 160°
2026-04-28 21:49 29.48644 -81.23243 3017 ft 167 kts 161°
2026-04-28 21:50 29.47541 -81.22863 3016 ft 164 kts 159°
2026-04-28 21:50 29.46436 -81.22486 3020 ft 166 kts 160°
2026-04-28 21:50 29.45316 -81.22097 3025 ft 168 kts 160°
2026-04-28 21:50 29.44200 -81.21717 3022 ft 167 kts 161°
2026-04-28 21:51 29.43088 -81.21328 3020 ft 167 kts 160°
2026-04-28 21:51 29.41980 -81.20950 3018 ft 165 kts 159°
2026-04-28 21:51 29.40870 -81.20574 3013 ft 166 kts 159°
2026-04-28 21:51 29.39777 -81.20193 3017 ft 165 kts 160°
2026-04-28 21:52 29.38676 -81.19815 3012 ft 163 kts 159°
2026-04-28 21:52 29.37575 -81.19437 3019 ft 168 kts 159°
2026-04-28 21:52 29.36450 -81.19051 2997 ft 169 kts 159°
2026-04-28 21:52 29.35344 -81.18673 3003 ft 168 kts 160°
2026-04-28 21:53 29.34212 -81.18288 2991 ft 169 kts 159°
2026-04-28 21:53 29.33095 -81.17896 3012 ft 168 kts 159°
2026-04-28 21:53 29.31966 -81.17513 2987 ft 167 kts 159°
2026-04-28 21:53 29.30864 -81.17134 2990 ft 164 kts 159°
2026-04-28 21:54 29.29780 -81.16762 2995 ft 165 kts 161°
2026-04-28 21:54 29.28683 -81.16390 3000 ft 163 kts 159°
2026-04-28 21:54 29.27594 -81.16014 3006 ft 162 kts 160°
2026-04-28 21:54 29.26502 -81.15636 2945 ft 171 kts 159°
2026-04-28 21:55 29.25340 -81.15240 2837 ft 173 kts 160°
2026-04-28 21:55 29.24210 -81.14856 2629 ft 167 kts 158°
2026-04-28 21:55 29.23135 -81.14489 2402 ft 153 kts 159°
2026-04-28 21:55 29.22149 -81.14155 2170 ft 142 kts 157°
2026-04-28 21:56 29.21243 -81.13844 1965 ft 135 kts 156°
2026-04-28 21:56 29.20350 -81.13535 1765 ft 131 kts 156°
2026-04-28 21:56 29.19506 -81.13245 1641 ft 124 kts 158°
2026-04-28 21:56 29.18705 -81.12973 1486 ft 113 kts 157°
2026-04-28 21:57 29.17965 -81.12722 1349 ft 110 kts 155°
2026-04-28 21:57 29.17248 -81.12477 1191 ft 104 kts 154°
2026-04-28 21:57 29.16629 -81.12153 1038 ft 93 kts 130°
2026-04-28 21:57 29.16265 -81.11632 911 ft 80 kts 109°
2026-04-28 21:58 29.16124 -81.11074 756 ft 66 kts 91°
2026-04-28 21:58 29.16154 -81.10578 602 ft 59 kts 75°
2026-04-28 21:58 29.16288 -81.10120 474 ft 64 kts 69°
2026-04-28 21:58 29.16537 -81.09639 336 ft 78 kts 68°
2026-04-28 21:59 29.16757 -81.09052 198 ft 90 kts 72°
2026-04-28 21:59 29.16988 -81.08440 99 ft 73 kts 70°
2026-04-28 21:59 29.17183 -81.07956 59 ft 70 kts 67°
2026-04-28 22:00 29.17551 -81.07035 31 ft 40 kts 53°
2026-04-28 22:00 29.17660 -81.06826 31 ft 24 kts 20°
2026-04-28 22:00 29.17792 -81.06831 29 ft 18 kts 61°
2026-04-28 22:00 29.17832 -81.06732 30 ft 10 kts 66°
2026-04-28 22:01 29.17860 -81.06663 31 ft 11 kts 66°
2026-04-28 22:01 29.17897 -81.06572 32 ft 12 kts 65°
2026-04-28 22:01 29.17933 -81.06484 32 ft 13 kts 64°
2026-04-28 22:01 29.17981 -81.06364 34 ft 14 kts 64°
2026-04-28 22:02 29.18012 -81.06289 35 ft 9 kts 66°
2026-04-28 22:02 29.18046 -81.06206 35 ft 16 kts 62°
2026-04-28 22:02 29.18104 -81.06062 34 ft 23 kts 66°
2026-04-28 22:02 29.18165 -81.05912 35 ft 18 kts 66°
2026-04-28 22:03 29.18209 -81.05800 33 ft 13 kts 64°
2026-04-28 22:03 29.18252 -81.05698 34 ft 19 kts 65°
2026-04-28 22:03 29.18303 -81.05572 35 ft 14 kts 66°
2026-04-28 22:03 29.18334 -81.05494 34 ft 8 kts 60°
2026-04-28 22:04 29.18373 -81.05443 35 ft 11 kts 18°
2026-04-28 22:04 29.18468 -81.05478 34 ft 19 kts 333°
2026-04-28 22:04 29.18607 -81.05544 33 ft 23 kts 338°
2026-04-28 22:04 29.18652 -81.05655 33 ft 6 kts 217°
2026-04-28 22:05 29.18636 -81.05651 33 ft 0 kts 153°